DateTimeUTC,F1_A11,F1_S11,BsB_S11,BsG_S11,BsR_S11,BbsB_S11,BbsG_S11,BbsR_S11,BaB_A11,BaG_A11,BaR_A11,Tu_S11,T_S11,Uu_S11,U_S11,P_S11,T1_A11
2021-05-01T11:00:00Z,00000200,21000000,,,,,,,0000.09,0000.64,-000.17,17.1,24.3,00.6,00.4,0682.6,31.1
2021-05-01T11:01:00Z,00000200,21000000,,,,,,,0000.24,0000.14,0000.46,17.1,24.3,00.6,00.4,0682.6,31.0
2021-05-01T11:02:00Z,00000200,21000000,,,,,,,0000.23,0000.13,-000.01,17.1,24.3,00.6,00.4,0682.6,31.0
2021-05-01T11:03:00Z,00000200,61000000,,,,,,,0000.38,0000.31,0000.30,17.1,24.3,00.6,00.4,0682.6,31.0
2021-05-01T11:04:00Z,00000200,41000000,-000.14,0000.21,-000.08,0000.18,0000.01,0000.13,0000.35,0000.19,-000.08,17.3,24.1,01.0,00.7,0683.5,31.0
2021-05-01T11:05:00Z,00000200,01000000,0000.41,0000.05,-000.18,0000.08,0000.20,0000.01,0000.39,0000.04,0000.34,17.3,24.1,01.2,00.8,0683.6,31.0
2021-05-01T11:06:00Z,00000200,01000000,0000.29,0000.18,0000.05,0000.01,0000.23,0000.15,0000.21,0000.65,0000.36,17.4,24.1,01.4,00.9,0683.5,31.0
2021-05-01T11:07:00Z,00000200,01000000,0000.30,0000.40,0000.13,0000.13,-000.00,-000.02,0000.21,0000.10,0000.07,17.4,24.1,01.6,01.1,0683.5,31.0
2021-05-01T11:08:00Z,00000200,01000000,0000.27,0000.21,0000.22,0000.14,0000.07,-000.10,0000.05,0000.23,0000.26,17.4,24.1,01.6,01.1,0683.6,31.0
2021-05-01T11:09:00Z,00000200,01000000,0000.48,0000.32,0000.17,0000.19,-000.09,0000.21,-000.04,-000.16,-000.15,17.4,24.1,01.7,01.1,0683.5,31.0
2021-05-01T11:10:00Z,00000200,01000000,0000.47,0000.21,-000.03,0000.53,-000.03,0000.02,0000.03,-000.12,-000.23,17.4,24.1,01.6,01.1,0683.6,31.1
2021-05-01T11:11:00Z,00000200,01000000,-000.21,0000.03,0000.11,0000.33,-000.17,-000.04,-000.05,-000.06,0000.15,17.4,24.1,01.5,01.0,0683.6,31.1
2021-05-01T11:12:00Z,00000200,01000000,0000.09,0000.12,0000.12,0000.13,-000.15,0000.00,-000.30,-000.09,-000.01,17.4,24.1,01.5,01.0,0683.6,31.1
2021-05-01T11:13:00Z,00000200,01000000,0000.15,-000.27,0000.08,0000.35,0000.06,0000.35,0000.06,0000.03,-000.20,17.4,24.1,01.5,01.0,0683.6,31.1
2021-05-01T11:14:00Z,00000200,01000000,0000.04,-000.00,-000.08,0000.30,-000.12,-000.03,0000.21,-000.19,0000.11,17.4,24.1,01.4,00.9,0683.7,31.0
2021-05-01T11:15:00Z,00000200,01000000,0000.16,0000.34,-000.07,-000.04,-000.12,0000.01,0000.20,0000.46,0000.32,17.4,24.1,01.5,01.0,0683.7,31.1
2021-05-01T11:16:00Z,00000200,01000000,0000.30,-000.01,-000.04,0000.38,0000.15,0000.04,0000.56,0000.45,0000.17,17.5,24.1,01.7,01.1,0683.7,31.1
2021-05-01T11:17:00Z,00000200,01000000,0001.15,-000.07,0000.14,0000.21,0000.05,-000.03,0000.16,0000.16,0000.20,17.5,24.1,01.7,01.1,0683.6,31.1
2021-05-01T11:18:00Z,00000200,01000000,-000.21,0000.20,-000.04,0000.27,0000.09,-000.22,0000.00,-000.09,-000.42,17.5,24.1,01.8,01.2,0683.6,31.0
2021-05-01T11:19:00Z,00000200,01000000,0000.21,0000.14,0000.09,0000.37,-000.11,-000.09,-000.13,-000.02,0000.36,17.5,24.1,01.8,01.2,0683.6,31.0
2021-05-01T11:20:00Z,00000200,01000000,0000.26,0000.30,-000.14,0000.31,-000.26,-000.06,-000.18,-000.25,-000.29,17.5,24.1,01.8,01.2,0683.7,31.1
2021-05-01T11:21:00Z,00000200,01000000,0000.27,-000.17,0000.00,0000.83,0000.06,0000.20,-000.63,-000.33,-000.17,17.5,24.1,01.6,01.1,0683.7,31.1
2021-05-01T11:22:00Z,00000200,01000000,0000.52,0000.25,0000.14,0000.03,-000.03,-000.10,-000.00,0000.08,-000.21,17.5,24.1,01.5,01.0,0683.7,31.1
2021-05-01T11:23:00Z,00000200,01000000,0000.20,-000.01,0000.15,0000.30,-000.11,0000.37,-000.07,-000.18,0000.13,17.5,24.2,01.4,00.9,0683.7,31.1
2021-05-01T11:24:00Z,00000200,01000000,0000.05,0000.23,0000.23,0000.22,-000.18,-000.07,0000.46,-000.03,-000.10,17.5,24.1,01.3,00.9,0683.7,31.1
2021-05-01T11:25:00Z,00000200,01000000,0000.44,0000.01,-000.14,0000.01,0000.10,0000.01,-000.29,0000.36,0000.07,17.5,24.2,01.4,00.9,0683.7,31.1
2021-05-01T11:26:00Z,00000200,01000000,-000.06,0000.28,0000.18,0000.17,0000.29,0000.06,0000.47,0000.14,0000.23,17.5,24.2,01.5,01.0,0683.7,31.1
2021-05-01T11:27:00Z,00000200,01000000,-000.07,0000.21,0000.06,0000.09,0000.26,0000.10,0000.49,0000.38,0000.21,17.6,24.2,01.6,01.1,0683.7,31.1
2021-05-01T11:28:00Z,00000200,01000000,0000.47,-000.04,0000.17,0000.56,0000.10,0000.17,-000.20,-000.40,-000.01,17.6,24.2,01.7,01.1,0683.7,31.1
2021-05-01T11:29:00Z,00000200,01000000,0000.50,0000.20,0000.09,0000.17,-000.00,0000.01,0000.03,0000.56,0000.08,17.6,24.2,01.7,01.1,0683.7,31.1
2021-05-01T11:30:00Z,00000200,01000000,-000.48,0000.27,0000.11,0000.74,0000.24,0000.12,-000.17,-000.49,-000.02,17.6,24.2,01.7,01.1,0683.7,31.1
2021-05-01T11:31:00Z,00000200,01000000,0000.33,0000.09,0000.02,0000.50,0000.21,-000.14,-000.07,0000.04,-000.19,17.6,24.2,01.6,01.1,0683.7,31.1
2021-05-01T11:32:00Z,00000200,01000000,0000.26,0000.36,-000.19,0000.45,0000.02,0000.27,0000.07,-000.13,0000.05,17.6,24.2,01.6,01.0,0683.7,31.1
2021-05-01T11:33:00Z,00000200,01000000,-000.00,0000.04,0000.08,0000.60,0000.19,-000.01,0000.07,0000.21,-000.11,17.6,24.2,01.5,01.0,0683.7,31.1
2021-05-01T11:34:00Z,00000200,01000000,-000.29,0000.26,-000.02,0000.11,0000.13,0000.27,-000.21,-000.13,0000.18,17.6,24.2,01.6,01.1,0683.7,31.1
2021-05-01T11:35:00Z,00000200,01000000,0000.20,0000.04,0000.27,0000.09,-000.02,0000.09,0000.15,0000.13,-000.50,17.6,24.2,01.5,01.0,0683.8,31.1
2021-05-01T11:36:00Z,00000200,01000000,-000.09,-000.01,-000.08,0000.34,0000.00,-000.07,0000.18,0000.09,0000.73,17.6,24.2,01.6,01.1,0683.8,31.1
2021-05-01T11:37:00Z,00000200,01000000,0000.61,-000.07,0000.09,-000.28,0000.07,-000.02,0000.35,0000.40,-000.18,17.6,24.2,01.7,01.1,0683.8,31.1
2021-05-01T11:38:00Z,00000200,01000000,-000.09,0000.33,0000.04,0000.26,0000.13,-000.03,-000.14,0000.09,0000.36,17.7,24.2,01.7,01.1,0683.8,31.1
2021-05-01T11:39:00Z,00000200,01000000,0000.17,0000.05,-000.04,0000.08,-000.01,0000.35,0000.56,-000.05,-000.29,17.7,24.3,01.8,01.2,0683.8,31.1
2021-05-01T11:40:00Z,00000200,01000000,0000.57,0000.20,0000.36,-000.31,0000.12,0000.25,-000.39,0000.22,0000.36,17.7,24.3,01.8,01.2,0683.7,31.1
2021-05-01T11:41:00Z,00000200,01000000,-000.02,-000.14,-000.07,0000.40,0000.20,-000.08,0000.73,0000.23,0000.23,17.7,24.3,01.9,01.3,0683.7,31.1
2021-05-01T11:42:00Z,00000200,01000000,0000.19,0000.18,0000.01,0000.11,0000.05,0000.01,0000.21,0000.15,0000.19,17.7,24.3,01.9,01.3,0683.7,31.1
2021-05-01T11:43:00Z,00000200,00000000,0000.54,0000.12,0000.19,0000.35,-000.05,0000.11,0000.08,0000.26,0000.07,17.7,24.3,02.1,01.4,0683.8,31.1
2021-05-01T11:44:00Z,00000200,00000000,0000.32,0000.00,0000.35,0000.59,-000.12,0000.08,-000.01,0000.23,-000.28,17.7,24.3,02.1,01.4,0683.8,31.1
2021-05-01T11:45:00Z,00000200,01000000,0000.45,0000.08,0000.32,0000.59,0000.10,0000.24,0000.33,0000.35,0000.22,17.7,24.3,02.2,01.5,0683.8,31.1
2021-05-01T11:46:00Z,00000200,00000000,-000.25,0000.01,-000.09,0000.45,-000.02,0000.06,-000.05,-000.42,0000.54,17.7,24.3,02.1,01.4,0683.8,31.1
2021-05-01T11:47:00Z,00000200,01000000,-000.07,0000.20,-000.34,0000.56,0000.08,-000.07,-000.26,-000.09,-000.66,17.7,24.3,02.0,01.4,0683.8,31.1
2021-05-01T11:48:00Z,00000200,01000000,0000.07,0000.07,-000.03,0000.75,0000.03,-000.22,0000.00,-000.02,0000.37,17.7,24.3,02.1,01.4,0683.8,31.1
2021-05-01T11:49:00Z,00000200,00000000,0000.25,0000.23,0000.20,0000.14,-000.02,0000.26,-000.23,-000.00,-000.24,17.8,24.3,02.0,01.4,0683.8,31.1
2021-05-01T11:50:00Z,00000200,00000000,0000.15,-000.20,0000.02,0000.47,-000.27,0000.24,0000.07,-000.13,-000.29,17.8,24.3,02.0,01.3,0683.8,31.1
2021-05-01T11:51:00Z,00000200,01000000,0000.37,0000.31,0000.24,0000.38,-000.05,0000.26,-000.09,-000.15,0000.18,17.8,24.3,01.9,01.3,0683.8,31.1
2021-05-01T11:52:00Z,00000200,00000000,0000.41,0000.22,0000.20,-000.09,0000.08,0000.02,0000.31,0000.30,0000.12,17.8,24.3,01.9,01.3,0683.8,31.1
2021-05-01T11:53:00Z,00000200,00000000,-000.07,-000.01,0000.03,0000.30,0000.02,0000.04,0000.06,0000.27,0000.13,17.8,24.3,02.0,01.3,0683.8,31.1
2021-05-01T11:54:00Z,00000200,00000000,0000.55,0000.27,-000.19,0000.21,0000.16,0000.18,-000.04,-000.15,-000.26,17.8,24.3,02.0,01.3,0683.8,31.1
2021-05-01T11:55:00Z,00000200,00000000,0000.49,0000.03,0000.32,0000.26,-000.05,0000.11,0000.09,0000.03,0000.16,17.8,24.3,02.0,01.4,0683.8,31.1
2021-05-01T11:56:00Z,00000200,01000000,-000.10,-000.17,0000.20,0000.33,-000.07,0000.36,0000.12,0000.23,0000.06,17.8,24.3,02.0,01.4,0683.8,31.1
2021-05-01T11:57:00Z,00000200,40000000,,,,,,,-000.46,-000.43,-000.14,17.9,24.4,02.5,01.7,0683.9,31.1
2021-05-01T11:58:00Z,00000200,60000000,,,,,,,0000.50,-000.00,0000.21,17.6,24.5,02.0,01.3,0682.8,31.1
2021-05-01T11:59:00Z,00000200,20000000,,,,,,,-000.12,0000.43,-000.15,17.6,24.6,01.7,01.1,0682.8,31.1
